| time (UTC) | temp C | wind direction | speed KPH | gust KPH | rain 1hr cm | rain 24hr cm | rain mn cm | humidity % | barometer mb |
| 20260510145006 | 19 | 119 | 8.0 | 12.9 | 0.00 | 0.00 | 0.00 | 40 | 1010.9 |
| 20260510145002 | 19 | 129 | 6.4 | 11.3 | 0.00 | 0.00 | 0.00 | 39 | 1012.7 |
| 20260510144506 | 19 | 113 | 6.4 | 9.7 | 0.00 | 0.00 | 0.00 | 40 | 1010.8 |
| 20260510144502 | 19 | 119 | 6.4 | 8.0 | 0.00 | 0.00 | 0.00 | 38 | 1012.8 |
| 20260510144006 | 19 | 145 | 6.4 | 11.3 | 0.00 | 0.00 | 0.00 | 39 | 1010.8 |
| 20260510144003 | 19 | 125 | 6.4 | 11.3 | 0.00 | 0.00 | 0.00 | 37 | 1013.1 |
| 20260510143506 | 19 | 159 | 8.0 | 11.3 | 0.00 | 0.00 | 0.00 | 40 | 1010.9 |
| 20260510143503 | 19 | 146 | 6.4 | 11.3 | 0.00 | 0.00 | 0.00 | 36 | 1012.9 |
| 20260510143002 | 19 | 82 | 6.4 | 11.3 | 0.00 | 0.00 | 0.00 | 39 | 1013.1 |
| 20260510142506 | 19 | 142 | 6.4 | 11.3 | 0.00 | 0.00 | 0.00 | 40 | 1011.1 |
| 20260510142503 | 19 | 104 | 8.0 | 11.3 | 0.00 | 0.00 | 0.00 | 37 | 1013.1 |
| 20260510142006 | 19 | 213 | 4.8 | 9.7 | 0.00 | 0.00 | 0.00 | 41 | 1011.1 |
| 20260510142003 | 19 | 217 | 4.8 | 8.0 | 0.00 | 0.00 | 0.00 | 37 | 1013.2 |
| 20260510141506 | 19 | 110 | 6.4 | 11.3 | 0.00 | 0.00 | 0.00 | 42 | 1011.2 |
| 20260510141502 | 19 | 230 | 4.8 | 6.4 | 0.00 | 0.00 | 0.00 | 38 | 1013.2 |
| 20260510141006 | 19 | 93 | 11.3 | 11.3 | 0.00 | 0.00 | 0.00 | 41 | 1011.4 |
| 20260510141002 | 19 | 131 | 6.4 | 11.3 | 0.00 | 0.00 | 0.00 | 38 | 1013.4 |
| 20260510140506 | 19 | 98 | 9.7 | 11.3 | 0.00 | 0.00 | 0.00 | 42 | 1011.3 |
| 20260510140502 | 19 | 112 | 8.0 | 11.3 | 0.00 | 0.00 | 0.00 | 38 | 1013.4 |
| 20260510140008 | 19 | 96 | 6.4 | 11.3 | 0.00 | 0.00 | 0.00 | 40 | 1013.3 |
| 20260510135506 | 19 | 107 | 8.0 | 12.9 | 0.00 | 0.00 | 0.00 | 42 | 1011.4 |
| 20260510135502 | 19 | 71 | 6.4 | 9.7 | 0.00 | 0.00 | 0.00 | 39 | 1013.3 |
| 20260510135006 | 20 | 107 | 9.7 | 17.7 | 0.00 | 0.00 | 0.00 | 42 | 1011.5 |
| 20260510135003 | 19 | 90 | 8.0 | 14.5 | 0.00 | 0.00 | 0.00 | 40 | 1013.3 |
| 20260510134505 | 20 | 359 | 8.0 | 17.7 | 0.00 | 0.00 | 0.00 | 41 | 1011.5 |
| 20260510134503 | 19 | 57 | 6.4 | 14.5 | 0.00 | 0.00 | 0.00 | 41 | 1013.6 |
| 20260510134007 | 20 | 342 | 4.8 | 8.0 | 0.00 | 0.00 | 0.00 | 41 | 1011.6 |
| 20260510133506 | 19 | 280 | 4.8 | 9.7 | 0.00 | 0.00 | 0.00 | 42 | 1011.7 |
| 20260510133503 | 19 | 230 | 4.8 | 9.7 | 0.00 | 0.00 | 0.00 | 39 | 1013.7 |
| 20260510133006 | 19 | 277 | 6.4 | 9.7 | 0.00 | 0.00 | 0.00 | 42 | 1011.8 |
| 20260510133002 | 18 | 227 | 4.8 | 9.7 | 0.00 | 0.00 | 0.00 | 40 | 1013.6 |
| 20260510132506 | 19 | 252 | 6.4 | 12.9 | 0.00 | 0.00 | 0.00 | 42 | 1011.7 |
| 20260510131506 | 18 | 212 | 8.0 | 11.3 | 0.00 | 0.00 | 0.00 | 42 | 1011.8 |
| 20260510131502 | 18 | 214 | 8.0 | 11.3 | 0.00 | 0.00 | 0.00 | 40 | 1014.1 |
| 20260510131006 | 18 | 210 | 9.7 | 16.1 | 0.00 | 0.00 | 0.00 | 41 | 1011.9 |
| 20260510130506 | 18 | 224 | 9.7 | 16.1 | 0.00 | 0.00 | 0.00 | 42 | 1012.0 |
| 20260510130503 | 18 | 237 | 9.7 | 14.5 | 0.00 | 0.00 | 0.00 | 40 | 1014.1 |
| 20260510130011 | 18 | 288 | 8.0 | 14.5 | 0.00 | 0.00 | 0.00 | 40 | 1014.2 |
| 20260510130006 | 18 | 231 | 8.0 | 16.1 | 0.00 | 0.00 | 0.00 | 43 | 1012.2 |
| 20260510125502 | 18 | 337 | 4.8 | 9.7 | 0.00 | 0.00 | 0.00 | 41 | 1014.0 |
| 20260510125003 | 18 | 2 | 6.4 | 9.7 | 0.00 | 0.00 | 0.00 | 40 | 1014.3 |
| 20260510124506 | 18 | 315 | 6.4 | 11.3 | 0.00 | 0.00 | 0.00 | 45 | 1012.5 |
| 20260510124006 | 18 | 266 | 6.4 | 11.3 | 0.00 | 0.00 | 0.00 | 45 | 1012.3 |
| 20260510123506 | 18 | 283 | 8.0 | 11.3 | 0.00 | 0.00 | 0.00 | 45 | 1012.5 |
| 20260510123502 | 18 | 267 | 6.4 | 11.3 | 0.00 | 0.00 | 0.00 | 40 | 1014.6 |
| 20260510123006 | 18 | 313 | 6.4 | 9.7 | 0.00 | 0.00 | 0.00 | 46 | 1012.5 |
| 20260510122506 | 18 | 143 | 4.8 | 6.4 | 0.00 | 0.00 | 0.00 | 45 | 1012.6 |
| 20260510122503 | 18 | 146 | 3.2 | 6.4 | 0.00 | 0.00 | 0.00 | 44 | 1014.5 |
| 20260510122006 | 18 | 193 | 4.8 | 9.7 | 0.00 | 0.00 | 0.00 | 45 | 1012.5 |
| 20260510122003 | 18 | 171 | 4.8 | 8.0 | 0.00 | 0.00 | 0.00 | 42 | 1014.5 |
| 20260510121502 | 18 | 283 | 8.0 | 17.7 | 0.00 | 0.00 | 0.00 | 42 | 1014.6 |
| 20260510121005 | 18 | 1 | 12.9 | 16.1 | 0.00 | 0.00 | 0.00 | 46 | 1012.8 |
| 20260510121003 | 18 | 314 | 14.5 | 17.7 | 0.00 | 0.00 | 0.00 | 41 | 1014.7 |
| 20260510120502 | 18 | 313 | 14.5 | 17.7 | 0.00 | 0.00 | 0.00 | 41 | 1014.8 |
| 20260510120008 | 18 | 302 | 8.0 | 17.7 | 0.00 | 0.00 | 0.00 | 41 | 1015.2 |
| 20260510115505 | 17 | 293 | 8.0 | 12.9 | 0.00 | 0.00 | 0.00 | 45 | 1013.0 |
| 20260510115503 | 18 | 287 | 8.0 | 12.9 | 0.00 | 0.00 | 0.00 | 41 | 1015.0 |
| 20260510115006 | 17 | 296 | 8.0 | 12.9 | 0.00 | 0.00 | 0.00 | 46 | 1013.1 |
| 20260510114506 | 17 | 339 | 6.4 | 11.3 | 0.00 | 0.00 | 0.00 | 46 | 1013.0 |
| 20260510114503 | 18 | 356 | 6.4 | 9.7 | 0.00 | 0.00 | 0.00 | 44 | 1014.9 |
| 20260510114002 | 18 | 1 | 4.8 | 9.7 | 0.00 | 0.00 | 0.00 | 44 | 1015.0 |
| 20260510113506 | 17 | 271 | 8.0 | 17.7 | 0.00 | 0.00 | 0.00 | 48 | 1013.2 |
| 20260510113006 | 17 | 263 | 9.7 | 17.7 | 0.00 | 0.00 | 0.00 | 48 | 1013.4 |
| 20260510113003 | 18 | 276 | 9.7 | 17.7 | 0.00 | 0.00 | 0.00 | 45 | 1015.4 |
| 20260510112506 | 17 | 224 | 9.7 | 16.1 | 0.00 | 0.00 | 0.00 | 49 | 1013.4 |
| 20260510112006 | 17 | 247 | 8.0 | 16.1 | 0.00 | 0.00 | 0.00 | 49 | 1013.5 |
| 20260510112003 | 17 | 278 | 8.0 | 14.5 | 0.00 | 0.00 | 0.00 | 45 | 1015.3 |
| 20260510111506 | 17 | 223 | 8.0 | 12.9 | 0.00 | 0.00 | 0.00 | 48 | 1013.6 |
| 20260510111005 | 17 | 203 | 11.3 | 16.1 | 0.00 | 0.00 | 0.00 | 48 | 1013.7 |
| 20260510111002 | 17 | 123 | 11.3 | 14.5 | 0.00 | 0.00 | 0.00 | 42 | 1015.3 |
| 20260510110506 | 17 | 354 | 9.7 | 16.1 | 0.00 | 0.00 | 0.00 | 50 | 1013.7 |
| 20260510110503 | 17 | 18 | 9.7 | 14.5 | 0.00 | 0.00 | 0.00 | 45 | 1015.5 |
| 20260510110008 | 17 | 359 | 8.0 | 11.3 | 0.00 | 0.00 | 0.00 | 46 | 1015.5 |
| 20260510110006 | 17 | 348 | 8.0 | 11.3 | 0.00 | 0.00 | 0.00 | 51 | 1013.8 |
| 20260510105506 | 16 | 323 | 8.0 | 11.3 | 0.00 | 0.00 | 0.00 | 52 | 1013.8 |
| 20260510105503 | 16 | 351 | 6.4 | 11.3 | 0.00 | 0.00 | 0.00 | 50 | 1015.8 |
| 20260510105006 | 16 | 284 | 6.4 | 9.7 | 0.00 | 0.00 | 0.00 | 52 | 1013.9 |
| 20260510104506 | 16 | 261 | 6.4 | 9.7 | 0.00 | 0.00 | 0.00 | 52 | 1013.9 |
| 20260510104006 | 16 | 262 | 4.8 | 8.0 | 0.00 | 0.00 | 0.00 | 54 | 1014.0 |
| 20260510103506 | 16 | 289 | 8.0 | 14.5 | 0.00 | 0.00 | 0.00 | 52 | 1014.0 |
| 20260510103503 | 16 | 279 | 6.4 | 12.9 | 0.00 | 0.00 | 0.00 | 49 | 1016.1 |
| 20260510103006 | 16 | 259 | 11.3 | 14.5 | 0.00 | 0.00 | 0.00 | 52 | 1014.0 |
| 20260510103002 | 16 | 259 | 9.7 | 12.9 | 0.00 | 0.00 | 0.00 | 49 | 1015.8 |
| 20260510102006 | 16 | 201 | 6.4 | 9.7 | 0.00 | 0.00 | 0.00 | 52 | 1014.3 |
| 20260510101506 | 16 | 181 | 8.0 | 12.9 | 0.00 | 0.00 | 0.00 | 51 | 1014.2 |
| 20260510101502 | 16 | 162 | 6.4 | 11.3 | 0.00 | 0.00 | 0.00 | 46 | 1016.4 |
| 20260510101006 | 16 | 142 | 11.3 | 12.9 | 0.00 | 0.00 | 0.00 | 49 | 1014.4 |
| 20260510101002 | 17 | 139 | 9.7 | 11.3 | 0.00 | 0.00 | 0.00 | 43 | 1016.4 |
| 20260510100506 | 16 | 138 | 9.7 | 12.9 | 0.00 | 0.00 | 0.00 | 52 | 1014.3 |
| 20260510100503 | 17 | 129 | 9.7 | 11.3 | 0.00 | 0.00 | 0.00 | 45 | 1016.2 |
| 20260510100008 | 17 | 122 | 6.4 | 11.3 | 0.00 | 0.00 | 0.00 | 45 | 1016.3 |
| 20260510095503 | 17 | 209 | 6.4 | 11.3 | 0.00 | 0.00 | 0.00 | 44 | 1016.3 |
| 20260510095006 | 16 | 187 | 8.0 | 12.9 | 0.00 | 0.00 | 0.00 | 52 | 1014.6 |
| 20260510095002 | 17 | 175 | 8.0 | 12.9 | 0.00 | 0.00 | 0.00 | 44 | 1016.6 |
| 20260510094506 | 16 | 231 | 6.4 | 12.9 | 0.00 | 0.00 | 0.00 | 51 | 1014.6 |
| 20260510094503 | 17 | 135 | 6.4 | 12.9 | 0.00 | 0.00 | 0.00 | 44 | 1016.4 |
| 20260510094006 | 16 | 36 | 6.4 | 9.7 | 0.00 | 0.00 | 0.00 | 49 | 1014.8 |
| 20260510094002 | 17 | 56 | 6.4 | 8.0 | 0.00 | 0.00 | 0.00 | 44 | 1016.5 |
| 20260510093506 | 16 | 119 | 6.4 | 9.7 | 0.00 | 0.00 | 0.00 | 51 | 1014.8 |
| 20260510093502 | 17 | 116 | 6.4 | 8.0 | 0.00 | 0.00 | 0.00 | 46 | 1016.5 |
| 20260510093006 | 16 | 147 | 8.0 | 9.7 | 0.00 | 0.00 | 0.00 | 52 | 1014.8 |
| 20260510093003 | 16 | 174 | 6.4 | 9.7 | 0.00 | 0.00 | 0.00 | 47 | 1016.4 |
| 20260510092506 | 16 | 229 | 8.0 | 11.3 | 0.00 | 0.00 | 0.00 | 53 | 1014.9 |
| 20260510092502 | 16 | 223 | 6.4 | 11.3 | 0.00 | 0.00 | 0.00 | 50 | 1016.4 |
| 20260510092006 | 16 | 247 | 6.4 | 11.3 | 0.00 | 0.00 | 0.00 | 52 | 1014.9 |
| 20260510091506 | 16 | 214 | 8.0 | 11.3 | 0.00 | 0.00 | 0.00 | 53 | 1014.9 |
| 20260510091503 | 16 | 210 | 8.0 | 11.3 | 0.00 | 0.00 | 0.00 | 49 | 1016.6 |
| 20260510091002 | 16 | 200 | 8.0 | 14.5 | 0.00 | 0.00 | 0.00 | 52 | 1016.6 |
| 20260510090506 | 15 | 206 | 8.0 | 16.1 | 0.00 | 0.00 | 0.00 | 55 | 1014.7 |
| 20260510090502 | 15 | 222 | 8.0 | 14.5 | 0.00 | 0.00 | 0.00 | 52 | 1016.4 |
| 20260510090006 | 15 | 170 | 8.0 | 12.9 | 0.00 | 0.00 | 0.00 | 57 | 1014.9 |
| 20260510085505 | 15 | 184 | 8.0 | 12.9 | 0.00 | 0.00 | 0.00 | 57 | 1015.1 |
| 20260510085502 | 15 | 197 | 8.0 | 12.9 | 0.00 | 0.00 | 0.00 | 54 | 1016.6 |
| 20260510085006 | 15 | 275 | 6.4 | 11.3 | 0.00 | 0.00 | 0.00 | 57 | 1015.2 |
| 20260510085002 | 15 | 306 | 6.4 | 11.3 | 0.00 | 0.00 | 0.00 | 55 | 1016.8 |
| 20260510084506 | 15 | 273 | 6.4 | 8.0 | 0.00 | 0.00 | 0.00 | 58 | 1015.4 |
| 20260510084503 | 15 | 285 | 6.4 | 8.0 | 0.00 | 0.00 | 0.00 | 55 | 1016.6 |
| 20260510084002 | 14 | 263 | 6.4 | 6.4 | 0.00 | 0.00 | 0.00 | 57 | 1016.9 |
| 20260510083506 | 14 | 273 | 8.0 | 12.9 | 0.00 | 0.00 | 0.00 | 59 | 1015.5 |
| 20260510083502 | 14 | 279 | 8.0 | 12.9 | 0.00 | 0.00 | 0.00 | 57 | 1016.9 |
| 20260510083006 | 15 | 262 | 9.7 | 16.1 | 0.00 | 0.00 | 0.00 | 58 | 1015.6 |
| 20260510082506 | 15 | 276 | 11.3 | 16.1 | 0.00 | 0.00 | 0.00 | 57 | 1015.3 |
| 20260510082006 | 15 | 288 | 9.7 | 16.1 | 0.00 | 0.00 | 0.00 | 59 | 1015.4 |
| 20260510082002 | 15 | 287 | 11.3 | 14.5 | 0.00 | 0.00 | 0.00 | 57 | 1017.0 |
| 20260510081506 | 15 | 241 | 8.0 | 12.9 | 0.00 | 0.00 | 0.00 | 59 | 1015.4 |
| 20260510081006 | 15 | 186 | 4.8 | 8.0 | 0.00 | 0.00 | 0.00 | 58 | 1015.6 |
| 20260510081002 | 15 | 234 | 8.0 | 11.3 | 0.00 | 0.00 | 0.00 | 56 | 1017.2 |
| 20260510080506 | 15 | 216 | 4.8 | 9.7 | 0.00 | 0.00 | 0.00 | 60 | 1015.6 |
| 20260510080503 | 14 | 239 | 6.4 | 11.3 | 0.00 | 0.00 | 0.00 | 57 | 1017.3 |
| 20260510080008 | 14 | 274 | 8.0 | 12.9 | 0.00 | 0.00 | 0.00 | 56 | 1017.4 |
| 20260510075506 | 15 | 241 | 9.7 | 12.9 | 0.00 | 0.00 | 0.00 | 61 | 1015.7 |
| 20260510075503 | 14 | 267 | 9.7 | 12.9 | 0.00 | 0.00 | 0.00 | 58 | 1017.5 |
| 20260510075006 | 14 | 227 | 9.7 | 12.9 | 0.00 | 0.00 | 0.00 | 62 | 1015.7 |
| 20260510075002 | 14 | 218 | 8.0 | 12.9 | 0.00 | 0.00 | 0.00 | 59 | 1017.6 |
| 20260510074506 | 14 | 225 | 6.4 | 12.9 | 0.00 | 0.00 | 0.00 | 63 | 1015.6 |
| 20260510074502 | 14 | 212 | 6.4 | 12.9 | 0.00 | 0.00 | 0.00 | 60 | 1017.7 |
| 20260510074006 | 14 | 198 | 8.0 | 17.7 | 0.00 | 0.00 | 0.00 | 62 | 1015.7 |
| 20260510073506 | 14 | 196 | 9.7 | 17.7 | 0.00 | 0.00 | 0.00 | 62 | 1015.6 |
| 20260510073503 | 13 | 194 | 8.0 | 17.7 | 0.00 | 0.00 | 0.00 | 58 | 1017.5 |
| 20260510073006 | 14 | 200 | 8.0 | 12.9 | 0.00 | 0.00 | 0.00 | 64 | 1015.6 |
| 20260510073002 | 13 | 192 | 6.4 | 12.9 | 0.00 | 0.00 | 0.00 | 60 | 1017.3 |
| 20260510072506 | 13 | 200 | 8.0 | 11.3 | 0.00 | 0.00 | 0.00 | 64 | 1015.8 |
| 20260510072502 | 13 | 212 | 6.4 | 9.7 | 0.00 | 0.00 | 0.00 | 62 | 1017.5 |
| 20260510072006 | 13 | 208 | 6.4 | 11.3 | 0.00 | 0.00 | 0.00 | 64 | 1015.6 |
| 20260510072002 | 13 | 206 | 6.4 | 9.7 | 0.00 | 0.00 | 0.00 | 61 | 1017.3 |
| 20260510071506 | 13 | 209 | 8.0 | 9.7 | 0.00 | 0.00 | 0.00 | 63 | 1015.7 |
| 20260510071503 | 13 | 197 | 6.4 | 8.0 | 0.00 | 0.00 | 0.00 | 58 | 1017.5 |
| 20260510071006 | 13 | 227 | 8.0 | 9.7 | 0.00 | 0.00 | 0.00 | 65 | 1015.7 |
| 20260510071003 | 13 | 218 | 8.0 | 8.0 | 0.00 | 0.00 | 0.00 | 60 | 1017.4 |
| 20260510070506 | 13 | 237 | 6.4 | 9.7 | 0.00 | 0.00 | 0.00 | 67 | 1015.7 |
| 20260510070502 | 13 | 234 | 6.4 | 8.0 | 0.00 | 0.00 | 0.00 | 65 | 1017.4 |
| 20260510070009 | 12 | 198 | 8.0 | 11.3 | 0.00 | 0.00 | 0.00 | 65 | 1017.5 |
| 20260510065506 | 13 | 219 | 8.0 | 11.3 | 0.00 | 0.00 | 0.00 | 67 | 1015.5 |
| 20260510065503 | 12 | 219 | 8.0 | 11.3 | 0.00 | 0.00 | 0.00 | 64 | 1017.6 |
| 20260510065002 | 12 | 238 | 6.4 | 8.0 | 0.00 | 0.00 | 0.00 | 66 | 1017.5 |
| 20260510064506 | 13 | 222 | 8.0 | 11.3 | 0.00 | 0.00 | 0.00 | 68 | 1015.6 |
| 20260510064006 | 12 | 227 | 8.0 | 8.0 | 0.00 | 0.00 | 0.00 | 70 | 1015.6 |
| 20260510064003 | 12 | 247 | 6.4 | 8.0 | 0.00 | 0.00 | 0.00 | 69 | 1017.8 |
| 20260510063503 | 12 | 229 | 6.4 | 8.0 | 0.00 | 0.00 | 0.00 | 72 | 1017.9 |
| 20260510063005 | 12 | 220 | 6.4 | 8.0 | 0.00 | 0.00 | 0.00 | 76 | 1015.9 |
| 20260510063002 | 12 | 205 | 4.8 | 6.4 | 0.00 | 0.00 | 0.00 | 76 | 1017.8 |
| 20260510062506 | 12 | 228 | 6.4 | 8.0 | 0.00 | 0.00 | 0.00 | 79 | 1015.7 |
| 20260510062502 | 11 | 202 | 4.8 | 6.4 | 0.00 | 0.00 | 0.00 | 82 | 1017.9 |
| 20260510062006 | 12 | 237 | 6.4 | 8.0 | 0.00 | 0.00 | 0.00 | 82 | 1015.7 |
| 20260510062002 | 11 | 211 | 4.8 | 6.4 | 0.00 | 0.00 | 0.00 | 88 | 1017.7 |
| 20260510061506 | 12 | 268 | 6.4 | 8.0 | 0.00 | 0.00 | 0.00 | 85 | 1015.8 |
| 20260510061503 | 11 | 224 | 4.8 | 6.4 | 0.00 | 0.00 | 0.00 | 94 | 1017.7 |
| 20260510061006 | 12 | 255 | 4.8 | 8.0 | 0.00 | 0.00 | 0.00 | 88 | 1015.9 |
| 20260510061002 | 11 | 222 | 3.2 | 6.4 | 0.00 | 0.00 | 0.00 | 97 | 1018.1 |
| 20260510060505 | 11 | 226 | 3.2 | 3.2 | 0.00 | 0.00 | 0.00 | 92 | 1016.1 |
| 20260510060503 | 11 | 212 | 3.2 | 3.2 | 0.00 | 0.00 | 0.00 | 99 | 1017.8 |
| 20260510060008 | 10 | 203 | 3.2 | 3.2 | 0.00 | 0.00 | 0.00 | 99 | 1018.0 |
| 20260510060006 | 11 | 224 | 3.2 | 4.8 | 0.00 | 0.00 | 0.00 | 92 | 1016.0 |
| 20260510055503 | 10 | 229 | 3.2 | 3.2 | 0.00 | 0.00 | 0.00 | 99 | 1018.0 |
| 20260510055006 | 11 | 241 | 3.2 | 4.8 | 0.00 | 0.00 | 0.00 | 94 | 1016.0 |
| 20260510054506 | 11 | 236 | 1.6 | 4.8 | 0.00 | 0.00 | 0.00 | 96 | 1016.1 |
| 20260510054502 | 10 | 226 | 1.6 | 3.2 | 0.00 | 0.00 | 0.00 | 99 | 1018.1 |
| 20260510054003 | 9 | 212 | 0.0 | 3.2 | 0.00 | 0.00 | 0.00 | 99 | 1017.9 |
| 20260510053506 | 11 | 140 | 0.0 | 3.2 | 0.00 | 0.00 | 0.00 | 98 | 1015.9 |
| 20260510053503 | 9 | 155 | 0.0 | 3.2 | 0.00 | 0.00 | 0.00 | 99 | 1017.9 |
| 20260510053006 | 10 | 161 | 1.6 | 3.2 | 0.00 | 0.00 | 0.00 | 99 | 1015.6 |
| 20260510053002 | 8 | 168 | 1.6 | 3.2 | 0.00 | 0.00 | 0.00 | 99 | 1018.1 |
| 20260510052506 | 8 | 182 | 3.2 | 3.2 | 0.00 | 0.00 | 0.00 | 99 | 1015.9 |
| 20260510052005 | 8 | 194 | 3.2 | 3.2 | 0.00 | 0.00 | 0.00 | 99 | 1016.0 |
| 20260510052003 | 8 | 196 | 1.6 | 3.2 | 0.00 | 0.00 | 0.00 | 99 | 1018.1 |
| 20260510051506 | 7 | 202 | 3.2 | 3.2 | 0.00 | 0.00 | 0.00 | 97 | 1016.2 |
| 20260510051005 | 7 | 223 | 3.2 | 3.2 | 0.00 | 0.00 | 0.00 | 97 | 1016.0 |
| 20260510050506 | 7 | 229 | 1.6 | 4.8 | 0.00 | 0.00 | 0.00 | 97 | 1015.9 |
| 20260510050502 | 7 | 202 | 3.2 | 3.2 | 0.00 | 0.00 | 0.00 | 97 | 1018.1 |
| 20260510050006 | 6 | 201 | 0.0 | 4.8 | 0.00 | 0.00 | 0.00 | 98 | 1016.0 |
| 20260510045503 | 6 | 220 | 1.6 | 3.2 | 0.00 | 0.00 | 0.00 | 98 | 1018.3 |
| 20260510045006 | 6 | 0 | 0.0 | 0.0 | 0.00 | 0.00 | 0.00 | 99 | 1016.1 |
| 20260510045002 | 6 | 207 | 0.0 | 3.2 | 0.00 | 0.00 | 0.00 | 98 | 1018.3 |
| 20260510044506 | 5 | 0 | 0.0 | 0.0 | 0.00 | 0.00 | 0.00 | 99 | 1016.1 |
| 20260510044503 | 6 | 192 | 0.0 | 1.6 | 0.00 | 0.00 | 0.00 | 98 | 1018.3 |
| 20260510044006 | 5 | 0 | 0.0 | 0.0 | 0.00 | 0.00 | 0.00 | 99 | 1016.0 |
| 20260510044003 | 5 | 181 | 0.0 | 1.6 | 0.00 | 0.00 | 0.00 | 99 | 1018.5 |
| 20260510043506 | 5 | 0 | 0.0 | 0.0 | 0.00 | 0.00 | 0.00 | 99 | 1016.2 |
| 20260510043006 | 5 | 0 | 0.0 | 0.0 | 0.00 | 0.00 | 0.00 | 99 | 1016.3 |
| 20260510042506 | 4 | 0 | 0.0 | 0.0 | 0.00 | 0.00 | 0.00 | 99 | 1016.1 |
| 20260510042503 | 4 | 181 | 0.0 | 1.6 | 0.00 | 0.00 | 0.00 | 99 | 1018.5 |
| 20260510042007 | 3 | 0 | 0.0 | 0.0 | 0.00 | 0.00 | 0.00 | 99 | 1016.2 |
| 20260510042003 | 3 | 181 | 0.0 | 1.6 | 0.00 | 0.00 | 0.00 | 99 | 1018.4 |
| 20260510041506 | 3 | 0 | 0.0 | 0.0 | 0.00 | 0.00 | 0.00 | 99 | 1016.2 |
| 20260510041502 | 3 | 0 | 0.0 | 0.0 | 0.00 | 0.00 | 0.00 | 99 | 1018.6 |
| 20260510041006 | 3 | 0 | 0.0 | 0.0 | 0.00 | 0.00 | 0.00 | 99 | 1016.2 |
| 20260510041003 | 2 | 0 | 0.0 | 0.0 | 0.00 | 0.00 | 0.00 | 99 | 1018.7 |
| 20260510040506 | 3 | 0 | 0.0 | 0.0 | 0.00 | 0.00 | 0.00 | 99 | 1016.2 |
| 20260510040503 | 2 | 0 | 0.0 | 0.0 | 0.00 | 0.00 | 0.00 | 97 | 1018.8 |
| 20260510040011 | 2 | 0 | 0.0 | 0.0 | 0.00 | 0.00 | 0.00 | 97 | 1018.6 |
| 20260510040006 | 3 | 0 | 0.0 | 0.0 | 0.00 | 0.00 | 0.00 | 99 | 1016.0 |
| 20260510035505 | 3 | 0 | 0.0 | 0.0 | 0.00 | 0.00 | 0.00 | 99 | 1016.2 |
| 20260510035502 | 2 | 0 | 0.0 | 0.0 | 0.00 | 0.00 | 0.00 | 97 | 1018.7 |
| 20260510035006 | 3 | 0 | 0.0 | 0.0 | 0.00 | 0.00 | 0.00 | 99 | 1016.0 |
| 20260510034506 | 3 | 0 | 0.0 | 0.0 | 0.00 | 0.00 | 0.00 | 99 | 1016.0 |
| 20260510034503 | 2 | 0 | 0.0 | 0.0 | 0.00 | 0.00 | 0.00 | 97 | 1018.7 |
| 20260510034005 | 2 | 0 | 0.0 | 0.0 | 0.00 | 0.00 | 0.00 | 98 | 1016.1 |
| 20260510034002 | 2 | 0 | 0.0 | 0.0 | 0.00 | 0.00 | 0.00 | 97 | 1018.8 |
| 20260510033506 | 2 | 0 | 0.0 | 0.0 | 0.00 | 0.00 | 0.00 | 98 | 1016.2 |
| 20260510033006 | 2 | 0 | 0.0 | 0.0 | 0.00 | 0.00 | 0.00 | 98 | 1016.0 |
| 20260510033003 | 2 | 0 | 0.0 | 0.0 | 0.00 | 0.00 | 0.00 | 97 | 1018.6 |
| 20260510032505 | 3 | 0 | 0.0 | 0.0 | 0.00 | 0.00 | 0.00 | 98 | 1016.0 |
| 20260510032502 | 2 | 0 | 0.0 | 0.0 | 0.00 | 0.00 | 0.00 | 97 | 1018.6 |
| 20260510032006 | 3 | 0 | 0.0 | 0.0 | 0.00 | 0.00 | 0.00 | 98 | 1016.0 |
| 20260510032002 | 2 | 0 | 0.0 | 0.0 | 0.00 | 0.00 | 0.00 | 97 | 1018.6 |
| 20260510031506 | 3 | 0 | 0.0 | 0.0 | 0.00 | 0.00 | 0.00 | 98 | 1016.2 |
| 20260510031006 | 3 | 0 | 0.0 | 0.0 | 0.00 | 0.00 | 0.00 | 98 | 1016.2 |
| 20260510031003 | 2 | 0 | 0.0 | 0.0 | 0.00 | 0.00 | 0.00 | 97 | 1018.8 |
| 20260510030009 | 2 | 0 | 0.0 | 0.0 | 0.00 | 0.00 | 0.00 | 97 | 1018.8 |
| 20260510030006 | 3 | 0 | 0.0 | 0.0 | 0.00 | 0.00 | 0.00 | 98 | 1016.2 |
| 20260510025502 | 2 | 0 | 0.0 | 0.0 | 0.00 | 0.00 | 0.00 | 99 | 1018.8 |
| 20260510025006 | 3 | 0 | 0.0 | 0.0 | 0.00 | 0.00 | 0.00 | 98 | 1016.2 |
| 20260510025003 | 3 | 0 | 0.0 | 0.0 | 0.00 | 0.00 | 0.00 | 99 | 1018.9 |
| 20260510024506 | 3 | 0 | 0.0 | 0.0 | 0.00 | 0.00 | 0.00 | 97 | 1016.2 |
| 20260510024502 | 3 | 0 | 0.0 | 0.0 | 0.00 | 0.00 | 0.00 | 99 | 1018.9 |
| 20260510024006 | 3 | 0 | 0.0 | 0.0 | 0.00 | 0.00 | 0.00 | 97 | 1016.2 |
| 20260510024003 | 3 | 0 | 0.0 | 0.0 | 0.00 | 0.00 | 0.00 | 99 | 1018.8 |
| 20260510023506 | 4 | 0 | 0.0 | 0.0 | 0.00 | 0.00 | 0.00 | 97 | 1016.5 |
| 20260510023502 | 3 | 0 | 0.0 | 0.0 | 0.00 | 0.00 | 0.00 | 99 | 1019.1 |
| 20260510023003 | 3 | 0 | 0.0 | 0.0 | 0.00 | 0.00 | 0.00 | 99 | 1019.0 |
| 20260510022506 | 4 | 0 | 0.0 | 0.0 | 0.00 | 0.00 | 0.00 | 97 | 1016.4 |
| 20260510022503 | 3 | 0 | 0.0 | 0.0 | 0.00 | 0.00 | 0.00 | 99 | 1019.1 |
| 20260510022006 | 4 | 0 | 0.0 | 0.0 | 0.00 | 0.00 | 0.00 | 97 | 1016.4 |
| 20260510022002 | 3 | 0 | 0.0 | 0.0 | 0.00 | 0.00 | 0.00 | 99 | 1019.1 |
| 20260510021506 | 3 | 0 | 0.0 | 0.0 | 0.00 | 0.00 | 0.00 | 97 | 1016.5 |
| 20260510021503 | 3 | 0 | 0.0 | 0.0 | 0.00 | 0.00 | 0.00 | 99 | 1019.0 |
| 20260510020506 | 3 | 0 | 0.0 | 0.0 | 0.00 | 0.00 | 0.00 | 96 | 1016.5 |
| 20260510020502 | 3 | 0 | 0.0 | 0.0 | 0.00 | 0.00 | 0.00 | 99 | 1018.9 |
| 20260510020009 | 3 | 0 | 0.0 | 0.0 | 0.00 | 0.00 | 0.00 | 99 | 1019.1 |
| 20260510020006 | 3 | 0 | 0.0 | 0.0 | 0.00 | 0.00 | 0.00 | 96 | 1016.6 |
| 20260510015506 | 3 | 0 | 0.0 | 0.0 | 0.00 | 0.00 | 0.00 | 96 | 1016.6 |
| 20260510015502 | 3 | 0 | 0.0 | 0.0 | 0.00 | 0.00 | 0.00 | 99 | 1019.2 |
| 20260510015006 | 3 | 0 | 0.0 | 0.0 | 0.00 | 0.00 | 0.00 | 96 | 1016.5 |
| 20260510014505 | 3 | 0 | 0.0 | 0.0 | 0.00 | 0.00 | 0.00 | 96 | 1016.4 |
| 20260510014503 | 3 | 0 | 0.0 | 0.0 | 0.00 | 0.00 | 0.00 | 99 | 1018.9 |
| 20260510014006 | 4 | 0 | 0.0 | 0.0 | 0.00 | 0.00 | 0.00 | 96 | 1016.6 |
| 20260510014002 | 3 | 0 | 0.0 | 0.0 | 0.00 | 0.00 | 0.00 | 99 | 1018.9 |
| 20260510013506 | 4 | 0 | 0.0 | 0.0 | 0.00 | 0.00 | 0.00 | 96 | 1016.4 |
| 20260510013502 | 3 | 0 | 0.0 | 0.0 | 0.00 | 0.00 | 0.00 | 99 | 1018.9 |
| 20260510013003 | 3 | 0 | 0.0 | 0.0 | 0.00 | 0.00 | 0.00 | 99 | 1019.0 |
| 20260510012506 | 4 | 0 | 0.0 | 0.0 | 0.00 | 0.00 | 0.00 | 96 | 1016.3 |
| 20260510012502 | 3 | 0 | 0.0 | 0.0 | 0.00 | 0.00 | 0.00 | 99 | 1019.0 |
| 20260510012006 | 4 | 0 | 0.0 | 0.0 | 0.00 | 0.00 | 0.00 | 96 | 1016.4 |
| 20260510012003 | 3 | 0 | 0.0 | 0.0 | 0.00 | 0.00 | 0.00 | 99 | 1019.0 |
| 20260510011506 | 4 | 0 | 0.0 | 0.0 | 0.00 | 0.00 | 0.00 | 95 | 1016.4 |
| 20260510011005 | 4 | 0 | 0.0 | 0.0 | 0.00 | 0.00 | 0.00 | 95 | 1016.4 |
| 20260510011002 | 3 | 0 | 0.0 | 0.0 | 0.00 | 0.00 | 0.00 | 99 | 1018.9 |
| 20260510010506 | 4 | 0 | 0.0 | 0.0 | 0.00 | 0.00 | 0.00 | 95 | 1016.4 |
| 20260510010503 | 3 | 0 | 0.0 | 0.0 | 0.00 | 0.00 | 0.00 | 99 | 1018.9 |
| 20260510010009 | 3 | 0 | 0.0 | 0.0 | 0.00 | 0.00 | 0.00 | 99 | 1019.0 |
| 20260510005506 | 4 | 0 | 0.0 | 0.0 | 0.00 | 0.00 | 0.00 | 96 | 1016.5 |
| 20260510005503 | 3 | 0 | 0.0 | 0.0 | 0.00 | 0.00 | 0.00 | 98 | 1019.2 |
| 20260510005006 | 5 | 0 | 0.0 | 0.0 | 0.00 | 0.00 | 0.00 | 96 | 1016.7 |
| 20260510005002 | 4 | 0 | 0.0 | 0.0 | 0.00 | 0.00 | 0.00 | 98 | 1019.2 |
| 20260510004506 | 5 | 0 | 0.0 | 0.0 | 0.00 | 0.00 | 0.00 | 95 | 1016.5 |
| 20260510004502 | 4 | 0 | 0.0 | 0.0 | 0.00 | 0.00 | 0.00 | 98 | 1019.0 |
| 20260510004003 | 4 | 0 | 0.0 | 0.0 | 0.00 | 0.00 | 0.00 | 98 | 1019.1 |
| 20260510003505 | 5 | 0 | 0.0 | 0.0 | 0.00 | 0.00 | 0.00 | 95 | 1016.4 |
| 20260510003503 | 4 | 0 | 0.0 | 0.0 | 0.00 | 0.00 | 0.00 | 98 | 1019.1 |
| 20260510003006 | 5 | 0 | 0.0 | 0.0 | 0.00 | 0.00 | 0.00 | 95 | 1016.5 |
| 20260510003003 | 4 | 0 | 0.0 | 0.0 | 0.00 | 0.00 | 0.00 | 98 | 1018.9 |
| 20260510002506 | 5 | 0 | 0.0 | 0.0 | 0.00 | 0.00 | 0.00 | 94 | 1016.5 |
| 20260510002503 | 5 | 0 | 0.0 | 0.0 | 0.00 | 0.00 | 0.00 | 98 | 1019.1 |
| 20260510001506 | 5 | 0 | 0.0 | 0.0 | 0.00 | 0.00 | 0.00 | 94 | 1016.7 |
| 20260510001502 | 5 | 0 | 0.0 | 0.0 | 0.00 | 0.00 | 0.00 | 97 | 1019.5 |
| 20260510001006 | 5 | 0 | 0.0 | 0.0 | 0.00 | 0.00 | 0.00 | 94 | 1016.8 |
| 20260510001002 | 5 | 0 | 0.0 | 0.0 | 0.00 | 0.00 | 0.00 | 97 | 1019.1 |
| 20260510000505 | 5 | 0 | 0.0 | 0.0 | 0.00 | 0.00 | 0.00 | 94 | 1017.0 |
| 20260510000502 | 5 | 0 | 0.0 | 0.0 | 0.00 | 0.00 | 0.00 | 97 | 1019.3 |
| 20260510000009 | 5 | 0 | 0.0 | 0.0 | 0.00 | 0.00 | 0.00 | 97 | 1019.1 |
| 20260510000006 | 5 | 0 | 0.0 | 0.0 | 0.00 | 0.00 | 0.00 | 94 | 1016.8 |
| 20260509235506 | 5 | 0 | 0.0 | 0.0 | 0.00 | 0.00 | 0.00 | 94 | 1017.0 |
| 20260509235503 | 5 | 0 | 0.0 | 0.0 | 0.00 | 0.00 | 0.00 | 97 | 1019.3 |
| 20260509235006 | 6 | 0 | 0.0 | 0.0 | 0.00 | 0.00 | 0.00 | 94 | 1017.0 |
| 20260509235002 | 5 | 0 | 0.0 | 0.0 | 0.00 | 0.00 | 0.00 | 96 | 1019.5 |
| 20260509234506 | 6 | 0 | 0.0 | 0.0 | 0.00 | 0.00 | 0.00 | 93 | 1017.1 |
| 20260509234503 | 5 | 0 | 0.0 | 0.0 | 0.00 | 0.00 | 0.00 | 96 | 1019.2 |
| 20260509234006 | 6 | 0 | 0.0 | 0.0 | 0.00 | 0.00 | 0.00 | 93 | 1017.0 |
| 20260509234003 | 5 | 0 | 0.0 | 0.0 | 0.00 | 0.00 | 0.00 | 96 | 1019.5 |
| 20260509233506 | 6 | 0 | 0.0 | 0.0 | 0.00 | 0.00 | 0.00 | 93 | 1016.9 |
| 20260509233503 | 5 | 0 | 0.0 | 0.0 | 0.00 | 0.00 | 0.00 | 96 | 1019.3 |
| 20260509233006 | 6 | 0 | 0.0 | 0.0 | 0.00 | 0.00 | 0.00 | 93 | 1016.9 |
| 20260509232505 | 6 | 0 | 0.0 | 0.0 | 0.00 | 0.00 | 0.00 | 93 | 1016.9 |
| 20260509232006 | 6 | 0 | 0.0 | 0.0 | 0.00 | 0.00 | 0.00 | 93 | 1016.9 |
| 20260509231506 | 6 | 0 | 0.0 | 0.0 | 0.00 | 0.00 | 0.00 | 93 | 1017.2 |
| 20260509231503 | 5 | 0 | 0.0 | 0.0 | 0.00 | 0.00 | 0.00 | 96 | 1019.3 |
| 20260509231005 | 6 | 0 | 0.0 | 0.0 | 0.00 | 0.00 | 0.00 | 93 | 1017.0 |
| 20260509231003 | 6 | 0 | 0.0 | 0.0 | 0.00 | 0.00 | 0.00 | 95 | 1019.3 |
| 20260509230009 | 6 | 181 | 0.0 | 1.6 | 0.00 | 0.00 | 0.00 | 95 | 1019.6 |
| 20260509230006 | 6 | 0 | 0.0 | 0.0 | 0.00 | 0.00 | 0.00 | 93 | 1017.1 |
| 20260509225505 | 6 | 0 | 0.0 | 0.0 | 0.00 | 0.00 | 0.00 | 92 | 1017.1 |
| 20260509225003 | 6 | 181 | 0.0 | 1.6 | 0.00 | 0.00 | 0.00 | 95 | 1019.7 |
| 20260509224506 | 6 | 0 | 0.0 | 0.0 | 0.00 | 0.00 | 0.00 | 92 | 1017.1 |
| 20260509224002 | 6 | 0 | 0.0 | 0.0 | 0.00 | 0.00 | 0.00 | 94 | 1019.4 |
| 20260509223506 | 6 | 0 | 0.0 | 0.0 | 0.00 | 0.00 | 0.00 | 92 | 1017.2 |
| 20260509223503 | 6 | 0 | 0.0 | 0.0 | 0.00 | 0.00 | 0.00 | 94 | 1019.5 |
| 20260509223006 | 6 | 0 | 0.0 | 0.0 | 0.00 | 0.00 | 0.00 | 92 | 1017.2 |
| 20260509222505 | 6 | 0 | 0.0 | 0.0 | 0.00 | 0.00 | 0.00 | 92 | 1017.3 |
| 20260509222503 | 6 | 224 | 1.6 | 3.2 | 0.00 | 0.00 | 0.00 | 94 | 1019.7 |
| 20260509222006 | 7 | 0 | 0.0 | 0.0 | 0.00 | 0.00 | 0.00 | 92 | 1017.3 |
| 20260509222003 | 6 | 203 | 1.6 | 3.2 | 0.00 | 0.00 | 0.00 | 94 | 1019.6 |
| 20260509221506 | 6 | 0 | 0.0 | 0.0 | 0.00 | 0.00 | 0.00 | 92 | 1017.3 |
| 20260509221502 | 6 | 201 | 1.6 | 3.2 | 0.00 | 0.00 | 0.00 | 94 | 1019.8 |
| 20260509221002 | 6 | 225 | 1.6 | 1.6 | 0.00 | 0.00 | 0.00 | 94 | 1019.8 |
| 20260509220502 | 6 | 217 | 1.6 | 3.2 | 0.00 | 0.00 | 0.00 | 93 | 1019.8 |
| 20260509220010 | 6 | 214 | 1.6 | 3.2 | 0.00 | 0.00 | 0.00 | 93 | 1019.9 |
| 20260509220006 | 6 | 0 | 0.0 | 0.0 | 0.00 | 0.00 | 0.00 | 92 | 1017.3 |
| 20260509215506 | 6 | 0 | 0.0 | 0.0 | 0.00 | 0.00 | 0.00 | 90 | 1017.4 |
| 20260509215502 | 6 | 219 | 1.6 | 3.2 | 0.00 | 0.00 | 0.00 | 92 | 1019.6 |
| 20260509215006 | 6 | 0 | 0.0 | 0.0 | 0.00 | 0.00 | 0.00 | 90 | 1017.3 |
| 20260509215003 | 6 | 225 | 0.0 | 3.2 | 0.00 | 0.00 | 0.00 | 92 | 1019.9 |
| 20260509214505 | 6 | 0 | 0.0 | 0.0 | 0.00 | 0.00 | 0.00 | 90 | 1017.3 |
| 20260509214503 | 6 | 225 | 0.0 | 1.6 | 0.00 | 0.00 | 0.00 | 92 | 1019.6 |
| 20260509214006 | 7 | 0 | 0.0 | 0.0 | 0.00 | 0.00 | 0.00 | 89 | 1017.4 |
| 20260509213506 | 7 | 0 | 0.0 | 0.0 | 0.00 | 0.00 | 0.00 | 89 | 1017.5 |
| 20260509213503 | 6 | 0 | 0.0 | 0.0 | 0.00 | 0.00 | 0.00 | 92 | 1019.7 |
| 20260509213006 | 7 | 0 | 0.0 | 0.0 | 0.00 | 0.00 | 0.00 | 89 | 1017.3 |
| 20260509213003 | 6 | 169 | 0.0 | 1.6 | 0.00 | 0.00 | 0.00 | 92 | 1019.7 |
| 20260509212506 | 7 | 0 | 0.0 | 0.0 | 0.00 | 0.00 | 0.00 | 88 | 1017.5 |
| 20260509212003 | 6 | 0 | 0.0 | 0.0 | 0.00 | 0.00 | 0.00 | 91 | 1019.8 |
| 20260509211506 | 7 | 0 | 0.0 | 0.0 | 0.00 | 0.00 | 0.00 | 87 | 1017.4 |
| 20260509211502 | 6 | 0 | 0.0 | 0.0 | 0.00 | 0.00 | 0.00 | 91 | 1019.7 |
| 20260509211006 | 7 | 90 | 0.0 | 3.2 | 0.00 | 0.00 | 0.00 | 87 | 1017.4 |
| 20260509210506 | 7 | 90 | 0.0 | 3.2 | 0.00 | 0.00 | 0.00 | 87 | 1017.5 |
| 20260509210008 | 6 | 90 | 0.0 | 3.2 | 0.00 | 0.00 | 0.00 | 89 | 1019.8 |
| 20260509210005 | 7 | 90 | 0.0 | 3.2 | 0.00 | 0.00 | 0.00 | 86 | 1017.4 |
| 20260509205506 | 7 | 0 | 0.0 | 0.0 | 0.00 | 0.00 | 0.00 | 86 | 1017.5 |
| 20260509205503 | 6 | 0 | 0.0 | 0.0 | 0.00 | 0.00 | 0.00 | 88 | 1019.7 |
| 20260509205006 | 7 | 0 | 0.0 | 0.0 | 0.00 | 0.00 | 0.00 | 85 | 1017.5 |
| 20260509204505 | 7 | 0 | 0.0 | 0.0 | 0.00 | 0.00 | 0.00 | 84 | 1017.5 |
| 20260509204503 | 6 | 270 | 0.0 | 1.6 | 0.00 | 0.00 | 0.00 | 87 | 1019.9 |
| 20260509204006 | 7 | 0 | 0.0 | 0.0 | 0.00 | 0.00 | 0.00 | 84 | 1017.5 |
| 20260509203506 | 7 | 0 | 0.0 | 0.0 | 0.00 | 0.00 | 0.00 | 83 | 1017.5 |
| 20260509203502 | 7 | 0 | 0.0 | 0.0 | 0.00 | 0.00 | 0.00 | 84 | 1019.8 |
| 20260509203003 | 7 | 0 | 0.0 | 0.0 | 0.00 | 0.00 | 0.00 | 84 | 1019.5 |
| 20260509202506 | 7 | 181 | 1.6 | 3.2 | 0.00 | 0.00 | 0.00 | 82 | 1017.4 |
| 20260509202503 | 7 | 160 | 0.0 | 3.2 | 0.00 | 0.00 | 0.00 | 83 | 1019.6 |
| 20260509202006 | 7 | 181 | 1.6 | 3.2 | 0.00 | 0.00 | 0.00 | 82 | 1017.4 |
| 20260509201503 | 7 | 157 | 0.0 | 1.6 | 0.00 | 0.00 | 0.00 | 82 | 1019.5 |
| 20260509201006 | 8 | 0 | 0.0 | 0.0 | 0.00 | 0.00 | 0.00 | 81 | 1017.4 |
| 20260509201002 | 7 | 135 | 0.0 | 1.6 | 0.00 | 0.00 | 0.00 | 82 | 1019.8 |
| 20260509200506 | 8 | 0 | 0.0 | 0.0 | 0.00 | 0.00 | 0.00 | 80 | 1017.4 |
| 20260509200503 | 7 | 0 | 0.0 | 0.0 | 0.00 | 0.00 | 0.00 | 81 | 1019.6 |
| 20260509200008 | 8 | 0 | 0.0 | 0.0 | 0.00 | 0.00 | 0.00 | 80 | 1019.6 |
| 20260509200006 | 8 | 0 | 0.0 | 0.0 | 0.00 | 0.00 | 0.00 | 79 | 1017.5 |
| 20260509195506 | 8 | 0 | 0.0 | 0.0 | 0.00 | 0.00 | 0.00 | 79 | 1017.5 |
| 20260509195503 | 8 | 0 | 0.0 | 0.0 | 0.00 | 0.00 | 0.00 | 79 | 1019.5 |
| 20260509195006 | 9 | 0 | 0.0 | 0.0 | 0.00 | 0.00 | 0.00 | 77 | 1017.5 |
| 20260509195002 | 8 | 0 | 0.0 | 0.0 | 0.00 | 0.00 | 0.00 | 79 | 1019.8 |
| 20260509194506 | 9 | 0 | 0.0 | 0.0 | 0.00 | 0.00 | 0.00 | 76 | 1017.4 |
| 20260509194503 | 8 | 0 | 0.0 | 0.0 | 0.00 | 0.00 | 0.00 | 78 | 1019.6 |
| 20260509194006 | 9 | 181 | 0.0 | 1.6 | 0.00 | 0.00 | 0.00 | 76 | 1017.5 |
| 20260509194003 | 8 | 181 | 0.0 | 1.6 | 0.00 | 0.00 | 0.00 | 76 | 1019.6 |
| 20260509193506 | 10 | 181 | 0.0 | 1.6 | 0.00 | 0.00 | 0.00 | 76 | 1017.6 |
| 20260509193502 | 9 | 181 | 0.0 | 1.6 | 0.00 | 0.00 | 0.00 | 76 | 1019.7 |
| 20260509193006 | 10 | 211 | 1.6 | 3.2 | 0.00 | 0.00 | 0.00 | 75 | 1017.4 |
| 20260509193003 | 9 | 0 | 0.0 | 0.0 | 0.00 | 0.00 | 0.00 | 76 | 1019.6 |
| 20260509192505 | 10 | 222 | 1.6 | 3.2 | 0.00 | 0.00 | 0.00 | 75 | 1017.6 |
| 20260509192502 | 10 | 200 | 0.0 | 1.6 | 0.00 | 0.00 | 0.00 | 75 | 1019.7 |
| 20260509192006 | 10 | 210 | 3.2 | 4.8 | 0.00 | 0.00 | 0.00 | 75 | 1017.5 |
| 20260509191506 | 10 | 208 | 4.8 | 4.8 | 0.00 | 0.00 | 0.00 | 74 | 1017.5 |
| 20260509191503 | 10 | 205 | 3.2 | 4.8 | 0.00 | 0.00 | 0.00 | 74 | 1019.5 |
| 20260509191005 | 10 | 216 | 3.2 | 4.8 | 0.00 | 0.00 | 0.00 | 74 | 1017.5 |
| 20260509191003 | 10 | 212 | 3.2 | 4.8 | 0.00 | 0.00 | 0.00 | 73 | 1019.5 |
| 20260509190502 | 10 | 197 | 3.2 | 3.2 | 0.00 | 0.00 | 0.00 | 73 | 1019.4 |
| 20260509190009 | 11 | 184 | 4.8 | 8.0 | 0.00 | 0.00 | 0.00 | 73 | 1019.4 |
| 20260509190006 | 11 | 192 | 4.8 | 6.4 | 0.00 | 0.00 | 0.00 | 72 | 1017.4 |
| 20260509185506 | 11 | 173 | 4.8 | 8.0 | 0.00 | 0.00 | 0.00 | 72 | 1017.2 |
| 20260509185502 | 11 | 172 | 4.8 | 8.0 | 0.00 | 0.00 | 0.00 | 71 | 1019.4 |
| 20260509185006 | 11 | 174 | 4.8 | 8.0 | 0.00 | 0.00 | 0.00 | 70 | 1017.4 |
| 20260509185003 | 11 | 168 | 3.2 | 8.0 | 0.00 | 0.00 | 0.00 | 69 | 1019.2 |
| 20260509184506 | 11 | 205 | 3.2 | 3.2 | 0.00 | 0.00 | 0.00 | 69 | 1017.3 |
| 20260509184006 | 11 | 225 | 3.2 | 3.2 | 0.00 | 0.00 | 0.00 | 68 | 1017.3 |
| 20260509184002 | 11 | 221 | 1.6 | 3.2 | 0.00 | 0.00 | 0.00 | 67 | 1019.3 |
| 20260509183506 | 12 | 225 | 3.2 | 3.2 | 0.00 | 0.00 | 0.00 | 66 | 1017.3 |
| 20260509183503 | 11 | 225 | 1.6 | 3.2 | 0.00 | 0.00 | 0.00 | 66 | 1019.2 |
| 20260509183005 | 12 | 225 | 1.6 | 3.2 | 0.00 | 0.00 | 0.00 | 65 | 1017.2 |
| 20260509183003 | 12 | 225 | 0.0 | 1.6 | 0.00 | 0.00 | 0.00 | 64 | 1019.2 |
| 20260509182505 | 12 | 223 | 3.2 | 3.2 | 0.00 | 0.00 | 0.00 | 64 | 1017.1 |
| 20260509182502 | 12 | 202 | 1.6 | 3.2 | 0.00 | 0.00 | 0.00 | 64 | 1019.2 |
| 20260509182003 | 12 | 195 | 1.6 | 3.2 | 0.00 | 0.00 | 0.00 | 63 | 1019.2 |
| 20260509181506 | 13 | 214 | 3.2 | 4.8 | 0.00 | 0.00 | 0.00 | 64 | 1017.2 |
| 20260509181502 | 12 | 186 | 1.6 | 3.2 | 0.00 | 0.00 | 0.00 | 63 | 1019.3 |
| 20260509181005 | 13 | 221 | 3.2 | 4.8 | 0.00 | 0.00 | 0.00 | 63 | 1017.3 |
| 20260509180506 | 13 | 205 | 3.2 | 3.2 | 0.00 | 0.00 | 0.00 | 60 | 1017.1 |
| 20260509180503 | 13 | 184 | 3.2 | 3.2 | 0.00 | 0.00 | 0.00 | 61 | 1019.1 |
| 20260509180008 | 13 | 185 | 1.6 | 3.2 | 0.00 | 0.00 | 0.00 | 61 | 1019.2 |
| 20260509180006 | 13 | 192 | 3.2 | 3.2 | 0.00 | 0.00 | 0.00 | 60 | 1017.2 |
| 20260509175506 | 14 | 205 | 1.6 | 3.2 | 0.00 | 0.00 | 0.00 | 59 | 1017.1 |
| 20260509175503 | 13 | 184 | 0.0 | 3.2 | 0.00 | 0.00 | 0.00 | 60 | 1019.3 |
| 20260509175006 | 14 | 234 | 3.2 | 4.8 | 0.00 | 0.00 | 0.00 | 59 | 1017.1 |
| 20260509174505 | 15 | 257 | 3.2 | 4.8 | 0.00 | 0.00 | 0.00 | 58 | 1017.1 |
| 20260509174503 | 13 | 245 | 3.2 | 3.2 | 0.00 | 0.00 | 0.00 | 60 | 1019.1 |
| 20260509174006 | 15 | 268 | 4.8 | 6.4 | 0.00 | 0.00 | 0.00 | 56 | 1017.0 |
| 20260509174003 | 13 | 259 | 4.8 | 6.4 | 0.00 | 0.00 | 0.00 | 58 | 1019.3 |
| 20260509173502 | 13 | 266 | 4.8 | 6.4 | 0.00 | 0.00 | 0.00 | 58 | 1019.0 |
| 20260509173005 | 15 | 265 | 4.8 | 4.8 | 0.00 | 0.00 | 0.00 | 55 | 1017.0 |
| 20260509173003 | 13 | 279 | 3.2 | 4.8 | 0.00 | 0.00 | 0.00 | 56 | 1019.2 |
| 20260509172506 | 15 | 258 | 4.8 | 6.4 | 0.00 | 0.00 | 0.00 | 54 | 1017.1 |
| 20260509172502 | 14 | 277 | 4.8 | 6.4 | 0.00 | 0.00 | 0.00 | 55 | 1018.9 |
| 20260509172006 | 15 | 266 | 4.8 | 6.4 | 0.00 | 0.00 | 0.00 | 54 | 1017.1 |
| 20260509172002 | 14 | 281 | 4.8 | 6.4 | 0.00 | 0.00 | 0.00 | 55 | 1019.1 |
| 20260509171503 | 14 | 278 | 3.2 | 6.4 | 0.00 | 0.00 | 0.00 | 53 | 1019.0 |
| 20260509171005 | 16 | 268 | 3.2 | 4.8 | 0.00 | 0.00 | 0.00 | 52 | 1016.8 |
| 20260509171003 | 15 | 263 | 3.2 | 4.8 | 0.00 | 0.00 | 0.00 | 52 | 1018.7 |
| 20260509170506 | 16 | 257 | 3.2 | 4.8 | 0.00 | 0.00 | 0.00 | 52 | 1016.9 |
| 20260509170502 | 15 | 256 | 3.2 | 4.8 | 0.00 | 0.00 | 0.00 | 49 | 1019.0 |
| 20260509170008 | 15 | 261 | 3.2 | 3.2 | 0.00 | 0.00 | 0.00 | 50 | 1018.9 |
| 20260509165506 | 16 | 278 | 4.8 | 6.4 | 0.00 | 0.00 | 0.00 | 52 | 1017.0 |
| 20260509165502 | 16 | 274 | 3.2 | 6.4 | 0.00 | 0.00 | 0.00 | 51 | 1018.6 |
| 20260509165006 | 16 | 284 | 4.8 | 6.4 | 0.00 | 0.00 | 0.00 | 52 | 1017.0 |
| 20260509165003 | 16 | 280 | 3.2 | 6.4 | 0.00 | 0.00 | 0.00 | 49 | 1018.9 |
| 20260509164505 | 16 | 288 | 3.2 | 4.8 | 0.00 | 0.00 | 0.00 | 53 | 1017.0 |
| 20260509164503 | 16 | 299 | 3.2 | 6.4 | 0.00 | 0.00 | 0.00 | 49 | 1018.9 |
| 20260509164006 | 15 | 314 | 3.2 | 4.8 | 0.00 | 0.00 | 0.00 | 54 | 1017.1 |
| 20260509164002 | 16 | 321 | 3.2 | 6.4 | 0.00 | 0.00 | 0.00 | 51 | 1018.8 |
| 20260509163506 | 15 | 194 | 3.2 | 6.4 | 0.00 | 0.00 | 0.00 | 54 | 1017.1 |
| 20260509163502 | 15 | 173 | 3.2 | 6.4 | 0.00 | 0.00 | 0.00 | 52 | 1018.9 |
| 20260509163005 | 15 | 197 | 3.2 | 6.4 | 0.00 | 0.00 | 0.00 | 54 | 1017.1 |
| 20260509163003 | 15 | 174 | 3.2 | 6.4 | 0.00 | 0.00 | 0.00 | 50 | 1019.1 |
| 20260509162506 | 15 | 200 | 3.2 | 6.4 | 0.00 | 0.00 | 0.00 | 56 | 1017.0 |
| 20260509162006 | 15 | 148 | 4.8 | 6.4 | 0.00 | 0.00 | 0.00 | 56 | 1017.1 |
| 20260509162002 | 16 | 138 | 4.8 | 6.4 | 0.00 | 0.00 | 0.00 | 53 | 1018.9 |
| 20260509161505 | 15 | 135 | 3.2 | 6.4 | 0.00 | 0.00 | 0.00 | 57 | 1017.1 |
| 20260509161503 | 15 | 133 | 4.8 | 6.4 | 0.00 | 0.00 | 0.00 | 54 | 1019.1 |
| 20260509161006 | 15 | 144 | 4.8 | 8.0 | 0.00 | 0.00 | 0.00 | 57 | 1017.1 |
| 20260509161003 | 15 | 137 | 3.2 | 6.4 | 0.00 | 0.00 | 0.00 | 54 | 1019.1 |
| 20260509160505 | 14 | 136 | 4.8 | 8.0 | 0.00 | 0.00 | 0.00 | 57 | 1017.1 |
| 20260509160502 | 15 | 123 | 4.8 | 6.4 | 0.00 | 0.00 | 0.00 | 54 | 1019.2 |
| 20260509160009 | 15 | 111 | 3.2 | 6.4 | 0.00 | 0.00 | 0.00 | 54 | 1019.2 |
| 20260509160006 | 15 | 129 | 3.2 | 8.0 | 0.00 | 0.00 | 0.00 | 56 | 1017.4 |
| 20260509155506 | 15 | 165 | 1.6 | 4.8 | 0.00 | 0.00 | 0.00 | 55 | 1017.3 |
| 20260509155502 | 15 | 128 | 3.2 | 4.8 | 0.00 | 0.00 | 0.00 | 53 | 1019.4 |
| 20260509155005 | 15 | 142 | 1.6 | 4.8 | 0.00 | 0.00 | 0.00 | 55 | 1017.4 |
| 20260509155003 | 15 | 131 | 1.6 | 3.2 | 0.00 | 0.00 | 0.00 | 53 | 1019.4 |
| 20260509154506 | 15 | 174 | 3.2 | 4.8 | 0.00 | 0.00 | 0.00 | 55 | 1017.2 |
| 20260509154503 | 15 | 156 | 1.6 | 3.2 | 0.00 | 0.00 | 0.00 | 54 | 1019.3 |
| 20260509154006 | 15 | 206 | 3.2 | 6.4 | 0.00 | 0.00 | 0.00 | 55 | 1017.5 |
| 20260509154003 | 15 | 188 | 3.2 | 6.4 | 0.00 | 0.00 | 0.00 | 53 | 1019.2 |
| 20260509153505 | 15 | 185 | 4.8 | 6.4 | 0.00 | 0.00 | 0.00 | 55 | 1017.3 |
| 20260509153503 | 15 | 183 | 3.2 | 6.4 | 0.00 | 0.00 | 0.00 | 51 | 1019.4 |
| 20260509153006 | 15 | 114 | 4.8 | 8.0 | 0.00 | 0.00 | 0.00 | 56 | 1017.5 |
| 20260509153002 | 15 | 130 | 4.8 | 6.4 | 0.00 | 0.00 | 0.00 | 53 | 1019.2 |
| 20260509152506 | 15 | 124 | 6.4 | 8.0 | 0.00 | 0.00 | 0.00 | 56 | 1017.3 |
| 20260509152503 | 15 | 130 | 4.8 | 6.4 | 0.00 | 0.00 | 0.00 | 54 | 1019.5 |
| 20260509152006 | 15 | 168 | 4.8 | 8.0 | 0.00 | 0.00 | 0.00 | 56 | 1017.4 |
| 20260509152003 | 15 | 163 | 4.8 | 8.0 | 0.00 | 0.00 | 0.00 | 54 | 1019.2 |
| 20260509151506 | 15 | 136 | 4.8 | 9.7 | 0.00 | 0.00 | 0.00 | 57 | 1017.5 |
| 20260509151503 | 15 | 130 | 4.8 | 9.7 | 0.00 | 0.00 | 0.00 | 55 | 1019.4 |
| 20260509151006 | 14 | 100 | 8.0 | 11.3 | 0.00 | 0.00 | 0.00 | 57 | 1017.5 |
| 20260509151003 | 14 | 116 | 6.4 | 11.3 | 0.00 | 0.00 | 0.00 | 55 | 1019.4 |
| 20260509150505 | 14 | 95 | 4.8 | 11.3 | 0.00 | 0.00 | 0.00 | 58 | 1017.6 |
| 20260509150503 | 14 | 109 | 4.8 | 11.3 | 0.00 | 0.00 | 0.00 | 56 | 1019.4 |
| 20260509150009 | 14 | 87 | 3.2 | 6.4 | 0.00 | 0.00 | 0.00 | 55 | 1019.3 |
| 20260509150006 | 14 | 74 | 1.6 | 4.8 | 0.00 | 0.00 | 0.00 | 57 | 1017.5 |
| 20260509145505 | 14 | 41 | 3.2 | 6.4 | 0.00 | 0.00 | 0.00 | 57 | 1017.5 |
| 20260509145502 | 14 | 66 | 3.2 | 6.4 | 0.00 | 0.00 | 0.00 | 55 | 1019.4 |